This demonstration page uses our WeatherBlox Daily Observations layout. Learn more.

Left ArrowRight Arrow

Hourly Observations for September 1, 2022

Temp ( °F °C ) Dew Point ( °F °C ) Humidity (%) Winds ( mph kmh ) Pressure ( in mb ) Visibility ( mi km ) Precip ( " mm )
12:55 am 00:55 Clear 70 21.3 62 16.7 75 75 ESE 3 6 29.99 1016 10 16 0.00 0.00
1:55 am 01:55 Mostly Cloudy 70 21.2 62 16.4 74 74 SSE 5 7 29.98 1015 10 16 0.00 0.00
2:55 am 02:55 Mostly Cloudy 70 21.2 62 16.6 75 75 SSE 3 6 29.98 1015 10 16 0.00 0.00
3:55 am 03:55 Mostly Cloudy 69 20.7 62 16.5 77 77 Calm 29.98 1015 10 16 0.00 0.00
4:55 am 04:55 Mostly Cloudy 71 21.8 59 15.1 66 66 Calm 29.98 1015 10 16 0.00 0.00
5:55 am 05:55 Mostly Cloudy 69 20.7 60 15.7 73 73 SSE 6 9 30.00 1016 10 16 0.00 0.00
6:55 am 06:55 Mostly Cloudy 68 20.2 60 15.8 76 76 S 3 6 30.01 1016 7 11 0.00 0.00
7:55 am 07:55 Mostly Cloudy 69 20.8 60 15.6 72 72 S 7 11 30.01 1016 10 16 0.00 0.00
8:55 am 08:55 Mostly Cloudy 72 22.1 61 16.1 69 69 S 6 9 30.01 1016 10 16 0.00 0.00
9:55 am 09:55 Sunny 76 24.5 63 17 63 63 S 3 6 30.01 1016 10 16 0.00 0.00
12:55 pm 12:55 Mostly Cloudy 73 23 65 18.1 74 74 S 3 6 30.01 1016 10 16 0.00 0.00
3:55 pm 15:55 Cloudy with Light Showers 74 23.3 67 19.4 79 79 SE 6 9 29.96 1014 10 16 0.01 0.13
4:19 pm 16:19 Mostly Cloudy 75 24 68 20 78 78 ESE 7 11 29.94 1014 10 16 0.00 0.00
5:55 pm 17:55 Partly Cloudy 80 26.9 66 19 62 62 ESE 10 17 29.92 1013 10 16 0.00 0.00
6:55 pm 18:55 Mostly Sunny 80 26.4 65 18.5 62 62 SE 9 15 29.90 1013 10 16 0.00 0.00
7:55 pm 19:55 Mostly Sunny 74 23.5 66 18.8 75 75 ESE 6 9 29.90 1013 10 16 0.00 0.00
8:55 pm 20:55 Clear 72 22.1 66 18.7 81 81 SE 5 7 29.91 1013 10 16 0.00 0.00
9:55 pm 21:55 Clear 72 22.1 64 17.7 76 76 SSE 7 11 29.93 1014 10 16 0.00 0.00
10:55 pm 22:55 Clear 71 21.5 63 17.1 76 76 SSE 6 9 29.92 1013 10 16 0.00 0.00
11:55 pm 23:55 Clear 69 20.6 62 16.6 78 78 SE 5 7 29.92 1013 10 16 0.00 0.00

Powered by AerisWeather